FW8419 Weather Reports


Display with metric or nautical units.
time (UTC)temp
F
wind
direction
speed
MPH
gust
MPH
rain 1hr
in
rain 24hr
in
rain mn
in
humidity
%
barometer
mb
20260502152122 58 228 1.0 5.0 0.00 0.00 0.00 84 1017.5
20260502151122 56 222 0.0 3.0 0.00 0.00 0.00 88 1017.4
20260502150124 56 222 1.0 3.0 0.00 0.00 0.00 87 1017.4
20260502140122 54 0 0.0 0.0 0.00 0.00 0.00 91 1016.9
20260502130123 53 0 0.0 0.0 0.00 0.00 0.00 91 1016.4
20260502123143 54 222 0.0 3.0 0.00 0.00 0.00 91 1016.2
20260502122122 54 0 0.0 2.0 0.00 0.00 0.00 91 1016.2
20260502121122 54 222 0.0 3.0 0.00 0.00 0.00 90 1016.2
20260502120122 54 0 0.0 0.0 0.00 0.00 0.00 90 1016.2
20260502115122 54 222 0.0 3.0 0.00 0.00 0.00 88 1016.2
20260502114122 55 222 0.0 3.0 0.00 0.00 0.00 88 1016.1
20260502113122 55 0 0.0 0.0 0.00 0.00 0.00 86 1016.1
20260502112122 55 0 0.0 0.0 0.00 0.00 0.00 86 1015.8
20260502111144 55 0 0.0 0.0 0.00 0.00 0.00 85 1015.8
20260502110122 55 0 0.0 0.0 0.00 0.00 0.00 85 1015.9
20260502105122 55 0 0.0 0.0 0.00 0.00 0.00 86 1016.0
20260502104143 55 0 0.0 0.0 0.00 0.00 0.00 85 1015.9
20260502103122 55 0 0.0 0.0 0.00 0.00 0.00 85 1015.8
20260502102122 56 0 0.0 0.0 0.00 0.00 0.00 86 1015.8
20260502101122 56 0 0.0 0.0 0.00 0.00 0.00 86 1015.8
20260502100123 55 0 0.0 0.0 0.00 0.00 0.00 85 1015.8
20260502091122 55 81 0.0 2.0 0.00 0.00 0.00 83 1015.5
20260502090145 55 81 0.0 2.0 0.00 0.00 0.00 81 1015.4
20260502071123 58 0 0.0 0.0 0.00 0.00 0.00 75 1014.9
20260502070122 58 24 0.0 2.0 0.00 0.00 0.00 75 1015.0
20260502065124 59 327 0.0 2.0 0.00 0.00 0.00 76 1015.0
20260502064122 59 0 0.0 0.0 0.00 0.00 0.00 74 1014.8
20260502063123 59 0 0.0 0.0 0.00 0.00 0.00 74 1014.7
20260502062143 60 0 0.0 0.0 0.00 0.00 0.00 73 1014.7
20260502061124 60 327 0.0 2.0 0.00 0.00 0.00 72 1014.6
20260502060122 60 0 0.0 0.0 0.00 0.00 0.00 71 1014.4
20260502055122 61 0 0.0 0.0 0.00 0.00 0.00 71 1014.4
20260502054124 61 0 0.0 2.0 0.00 0.00 0.00 70 1014.3
20260502053122 61 0 0.0 0.0 0.00 0.00 0.00 69 1014.2
20260502052124 62 0 0.0 0.0 0.00 0.00 0.00 68 1014.2
20260502051143 62 0 0.0 2.0 0.00 0.00 0.00 67 1014.2
20260502050122 63 0 0.0 0.0 0.00 0.00 0.00 65 1014.1
20260502045122 63 327 0.0 2.0 0.00 0.00 0.00 64 1014.1
20260502044143 64 327 0.0 2.0 0.00 0.00 0.00 63 1014.1
20260502043124 64 0 0.0 0.0 0.00 0.00 0.00 62 1014.0
20260502042122 65 0 0.0 0.0 0.00 0.00 0.00 60 1014.0
20260502041122 65 0 0.0 2.0 0.00 0.00 0.00 59 1013.8
20260502040122 66 306 0.0 3.0 0.00 0.00 0.00 58 1013.8
20260502035122 66 287 2.0 6.0 0.00 0.00 0.00 57 1013.6
20260502034143 67 283 2.0 10.0 0.00 0.00 0.00 55 1013.6
20260502033143 68 298 2.0 6.0 0.00 0.00 0.00 54 1013.6
20260502032123 68 300 2.0 11.0 0.00 0.00 0.00 53 1013.6
20260502031123 68 304 2.0 11.0 0.00 0.00 0.00 52 1013.6
20260502030122 68 325 1.0 10.0 0.00 0.00 0.00 52 1013.5
20260502025122 68 308 1.0 6.0 0.00 0.00 0.00 54 1013.4
20260502024122 69 297 2.0 10.0 0.00 0.00 0.00 56 1013.5
20260502023124 69 285 2.0 10.0 0.00 0.00 0.00 55 1013.5
20260502022143 69 292 2.0 10.0 0.00 0.00 0.00 54 1013.6
20260502021122 69 269 3.0 11.0 0.00 0.00 0.00 54 1013.5
20260502020122 69 278 3.0 14.0 0.00 0.00 0.00 52 1013.4
20260502015145 69 263 4.0 14.0 0.00 0.00 0.00 52 1013.4
20260502014145 70 272 5.0 16.0 0.00 0.00 0.00 52 1013.6
20260502013145 70 263 5.0 16.0 0.00 0.00 0.00 53 1013.5
20260502012143 71 270 5.0 18.0 0.00 0.00 0.00 51 1013.7
20260502011122 72 272 6.0 18.0 0.00 0.00 0.00 50 1013.6
20260502010143 72 266 6.0 18.0 0.00 0.00 0.00 49 1013.7
20260502005124 73 264 5.0 19.0 0.00 0.00 0.00 48 1013.8
20260502004123 74 281 4.0 13.0 0.00 0.00 0.00 47 1013.7
20260502003143 75 274 3.0 18.0 0.00 0.00 0.00 47 1013.7
20260502002122 75 266 4.0 16.0 0.00 0.00 0.00 46 1013.7
20260502001143 75 261 3.0 14.0 0.00 0.00 0.00 45 1013.7
20260502000143 74 269 5.0 14.0 0.00 0.00 0.00 46 1013.6
20260501235124 75 277 5.0 16.0 0.00 0.00 0.00 45 1013.6
20260501234124 75 277 4.0 13.0 0.00 0.00 0.00 45 1013.9
20260501233122 74 275 4.0 14.0 0.00 0.00 0.00 46 1013.8
20260501232124 74 278 5.0 14.0 0.00 0.00 0.00 46 1014.0
20260501231122 74 282 4.0 18.0 0.00 0.00 0.00 46 1014.1
20260501230122 74 269 5.0 14.0 0.00 0.00 0.00 46 1014.3
20260501225124 74 271 4.0 19.0 0.00 0.00 0.00 48 1014.4
20260501224143 73 277 6.0 16.0 0.00 0.00 0.00 49 1014.6
20260501223122 73 259 5.0 16.0 0.00 0.00 0.00 49 1014.7
20260501222145 73 265 4.0 14.0 0.00 0.00 0.00 50 1014.8
20260501221143 73 271 5.0 18.0 0.00 0.00 0.00 51 1014.9
20260501220124 73 289 3.0 13.0 0.00 0.00 0.00 54 1015.0
20260501215145 72 277 4.0 14.0 0.00 0.00 0.00 53 1015.2
20260501214145 72 278 4.0 13.0 0.00 0.00 0.00 55 1015.3
20260501213123 72 268 5.0 16.0 0.00 0.00 0.00 54 1015.4
20260501212122 72 273 4.0 14.0 0.00 0.00 0.00 55 1015.4
20260501211124 72 266 5.0 16.0 0.00 0.00 0.00 54 1015.5
20260501210122 73 288 4.0 16.0 0.00 0.00 0.00 54 1015.5
20260501205122 74 265 2.0 13.0 0.00 0.00 0.00 46 1015.4
20260501204143 73 278 2.0 11.0 0.00 0.00 0.00 46 1015.6
20260501203124 72 289 2.0 8.0 0.00 0.00 0.00 47 1015.6
20260501202143 72 304 2.0 6.0 0.00 0.00 0.00 49 1015.6
20260501201122 72 298 3.0 11.0 0.00 0.00 0.00 48 1015.7
20260501200122 71 355 3.0 13.0 0.00 0.00 0.00 48 1015.7
20260501195122 71 351 2.0 6.0 0.00 0.00 0.00 48 1015.7
20260501194122 70 13 2.0 8.0 0.00 0.00 0.00 50 1015.8
20260501193124 69 26 4.0 11.0 0.00 0.00 0.00 49 1015.8
20260501192122 69 26 3.0 8.0 0.00 0.00 0.00 49 1016.0
20260501191124 69 21 2.0 8.0 0.00 0.00 0.00 50 1016.1
20260501190124 68 11 1.0 6.0 0.00 0.00 0.00 52 1016.1
20260501185122 68 24 1.0 6.0 0.00 0.00 0.00 54 1016.3
20260501184122 67 19 2.0 6.0 0.00 0.00 0.00 55 1016.2
20260501183122 67 16 2.0 11.0 0.00 0.00 0.00 55 1016.4
20260501182124 68 22 2.0 8.0 0.00 0.00 0.00 55 1016.4
20260501181123 67 282 1.0 6.0 0.00 0.00 0.00 56 1016.4
20260501180122 66 357 2.0 10.0 0.00 0.00 0.00 57 1016.5
20260501175122 65 18 2.0 8.0 0.00 0.00 0.00 58 1016.6
20260501174122 64 25 2.0 8.0 0.00 0.00 0.00 59 1016.6
20260501173122 64 25 2.0 6.0 0.00 0.00 0.00 58 1016.6
20260501172122 63 23 2.0 6.0 0.00 0.00 0.00 58 1016.6
20260501171143 63 30 1.0 5.0 0.00 0.00 0.00 58 1016.6
20260501170145 63 14 2.0 6.0 0.00 0.00 0.00 57 1016.7
20260501165124 62 31 1.0 5.0 0.00 0.00 0.00 58 1016.8
20260501164122 62 36 1.0 3.0 0.00 0.00 0.00 61 1016.9
20260501163122 61 30 1.0 5.0 0.00 0.00 0.00 64 1016.8
20260501162122 61 33 1.0 5.0 0.00 0.00 0.00 65 1016.7
20260501161122 61 0 0.0 0.0 0.00 0.00 0.00 66 1016.8
20260501160123 60 46 0.0 2.0 0.00 0.00 0.00 67 1016.9
20260501155122 60 0 0.0 0.0 0.00 0.00 0.00 68 1016.8
20260501154122 59 0 0.0 0.0 0.00 0.00 0.00 70 1016.8
20260501153123 59 46 1.0 3.0 0.00 0.00 0.00 71 1016.9